EN

Hourly Weather Bolshie Kopeny

Today, 26 October, Monday

Time Temperature Precipitation Wind Pressure Humidity
00:00 +5°C° 0 mm 3 mps 752 mmHg 93%
01:00 +5°C° 0 mm 3 mps 753 mmHg 94%
02:00 +5°C° 0 mm 3 mps 753 mmHg 94%
03:00 +5°C° 0 mm 3 mps 754 mmHg 94%
04:00 +4°C° 0 mm 3 mps 754 mmHg 95%
05:00 +4°C° 0 mm 3 mps 754 mmHg 95%
06:00 +3°C° 0 mm 3 mps 754 mmHg 95%
07:00 +4°C° 0 mm 3 mps 755 mmHg 88%
08:00 +5°C° 0 mm 3 mps 755 mmHg 81%
09:00 +7°C° 0 mm 3 mps 755 mmHg 74%
10:00 +8°C° 0 mm 3 mps 756 mmHg 65%
11:00 +10°C° 0 mm 3 mps 756 mmHg 56%
12:00 +12°C° 0 mm 2 mps 756 mmHg 48%
13:00 +11°C° 0 mm 3 mps 756 mmHg 48%
14:00 +12°C° 0 mm 3 mps 756 mmHg 48%
15:00 +12°C° 0 mm 3 mps 755 mmHg 49%
16:00 +11°C° 0 mm 3 mps 756 mmHg 55%
17:00 +9°C° 0 mm 2 mps 756 mmHg 61%
18:00 +8°C° 0 mm 2 mps 756 mmHg 67%
19:00 +8°C° 0 mm 2 mps 756 mmHg 71%
20:00 +7°C° 0 mm 2 mps 757 mmHg 75%
21:00 +7°C° 0 mm 2 mps 757 mmHg 79%
22:00 +6°C° 0 mm 2 mps 757 mmHg 83%
23:00 +6°C° 0 mm 2 mps 758 mmHg 87%

Tomorrow, 27 October, Tuesday

Time Temperature Precipitation Wind Pressure Humidity
00:00 +5°C° 0 mm 2 mps 758 mmHg 91%
01:00 +4°C° 0 mm 2 mps 758 mmHg 90%
02:00 +4°C° 0 mm 2 mps 759 mmHg 90%
03:00 +3°C° 0 mm 2 mps 759 mmHg 90%
04:00 +3°C° 0 mm 2 mps 759 mmHg 90%
05:00 +2°C° 0 mm 2 mps 760 mmHg 91%
06:00 +2°C° 0 mm 2 mps 760 mmHg 91%
07:00 +2°C° 0 mm 2 mps 761 mmHg 84%
08:00 +2°C° 0 mm 3 mps 761 mmHg 77%
09:00 +3°C° 0 mm 3 mps 761 mmHg 71%
10:00 +4°C° 0 mm 3 mps 761 mmHg 64%
11:00 +5°C° 0 mm 3 mps 762 mmHg 57%
12:00 +7°C° 0 mm 3 mps 762 mmHg 50%
13:00 +7°C° 0 mm 2 mps 762 mmHg 48%
14:00 +8°C° 0 mm 2 mps 762 mmHg 46%
15:00 +8°C° 0 mm 2 mps 762 mmHg 44%
16:00 +6°C° 0 mm 2 mps 762 mmHg 48%
17:00 +5°C° 0 mm 2 mps 762 mmHg 53%
18:00 +3°C° 0 mm 3 mps 762 mmHg 57%
19:00 +3°C° 0 mm 2 mps 763 mmHg 58%
20:00 +3°C° 0 mm 2 mps 763 mmHg 59%
21:00 +2°C° 0 mm 2 mps 763 mmHg 60%
22:00 +2°C° 0 mm 2 mps 763 mmHg 61%
23:00 +1°C° 0 mm 2 mps 763 mmHg 63%

Day after tomorrow, 28 October, Wednesday

Time Temperature Precipitation Wind Pressure Humidity
00:00 +1°C° 0 mm 2 mps 764 mmHg 64%
01:00 +1°C° 0 mm 2 mps 764 mmHg 66%
02:00 -1°C° 0 mm 2 mps 764 mmHg 68%
03:00 -1°C° 0 mm 2 mps 764 mmHg 69%
04:00 -1°C° 0 mm 2 mps 764 mmHg 70%
05:00 -1°C° 0 mm 2 mps 764 mmHg 71%
06:00 -2°C° 0 mm 2 mps 764 mmHg 71%
07:00 -1°C° 0 mm 2 mps 764 mmHg 65%
08:00 +2°C° 0 mm 2 mps 765 mmHg 60%
09:00 +2°C° 0 mm 3 mps 765 mmHg 54%
10:00 +3°C° 0 mm 3 mps 765 mmHg 46%
11:00 +5°C° 0 mm 3 mps 765 mmHg 39%
12:00 +8°C° 0 mm 3 mps 765 mmHg 32%
13:00 +7°C° 0 mm 4 mps 764 mmHg 32%
14:00 +7°C° 0 mm 4 mps 764 mmHg 33%
15:00 +7°C° 0 mm 4 mps 764 mmHg 33%
16:00 +5°C° 0 mm 4 mps 764 mmHg 38%
17:00 +4°C° 0 mm 3 mps 764 mmHg 43%
18:00 +2°C° 0 mm 3 mps 764 mmHg 49%
19:00 +2°C° 0 mm 3 mps 764 mmHg 51%
20:00 +2°C° 0 mm 3 mps 764 mmHg 53%
21:00 +1°C° 0 mm 3 mps 764 mmHg 56%
22:00 +1°C° 0 mm 3 mps 764 mmHg 58%
23:00 +1°C° 0 mm 3 mps 764 mmHg 61%

29 October, Thursday

Time Temperature Precipitation Wind Pressure Humidity
00:00 0°C° 0 mm 3 mps 764 mmHg 63%
01:00 0°C° 0 mm 3 mps 764 mmHg 65%
02:00 0°C° 0 mm 3 mps 764 mmHg 66%
03:00 0°C° 0 mm 3 mps 764 mmHg 68%
04:00 0°C° 0 mm 3 mps 764 mmHg 70%
05:00 -1°C° 0 mm 3 mps 764 mmHg 71%
06:00 -2°C° 0 mm 4 mps 764 mmHg 72%
07:00 -1°C° 0 mm 4 mps 764 mmHg 66%
08:00 +1°C° 0 mm 5 mps 764 mmHg 60%
09:00 +2°C° 0 mm 5 mps 764 mmHg 54%
10:00 +5°C° 0 mm 5 mps 764 mmHg 48%
11:00 +5°C° 0 mm 6 mps 764 mmHg 42%
12:00 +8°C° 0 mm 6 mps 763 mmHg 36%
13:00 +8°C° 0 mm 6 mps 763 mmHg 35%
14:00 +8°C° 0 mm 6 mps 763 mmHg 35%
15:00 +8°C° 0 mm 6 mps 762 mmHg 35%
16:00 +7°C° 0 mm 6 mps 762 mmHg 39%
17:00 +6°C° 0 mm 5 mps 762 mmHg 43%
18:00 +3°C° 0 mm 5 mps 762 mmHg 47%
19:00 +3°C° 0 mm 5 mps 762 mmHg 48%
20:00 +3°C° 0 mm 5 mps 762 mmHg 48%
21:00 +3°C° 0 mm 5 mps 762 mmHg 48%
22:00 +3°C° 0 mm 5 mps 762 mmHg 50%
23:00 +3°C° 0 mm 5 mps 761 mmHg 51%

30 October, Friday

Time Temperature Precipitation Wind Pressure Humidity
00:00 +3°C° 0 mm 4 mps 761 mmHg 52%
01:00 +3°C° 0 mm 4 mps 761 mmHg 55%
02:00 +3°C° 0 mm 4 mps 761 mmHg 58%
03:00 +1°C° 0 mm 4 mps 761 mmHg 61%
04:00 +1°C° 0 mm 4 mps 760 mmHg 63%
05:00 +1°C° 0 mm 4 mps 760 mmHg 64%
06:00 +1°C° 0 mm 5 mps 760 mmHg 65%
07:00 +2°C° 0 mm 5 mps 760 mmHg 61%
08:00 +3°C° 0 mm 5 mps 760 mmHg 57%
09:00 +4°C° 0 mm 6 mps 760 mmHg 53%
10:00 +5°C° 0 mm 6 mps 760 mmHg 52%
11:00 +7°C° 0 mm 6 mps 759 mmHg 50%
12:00 +8°C° 0 mm 6 mps 759 mmHg 49%
13:00 +8°C° 0 mm 6 mps 759 mmHg 49%
14:00 +8°C° 0 mm 6 mps 758 mmHg 49%
15:00 +9°C° 0 mm 6 mps 758 mmHg 49%
16:00 +8°C° 0 mm 5 mps 758 mmHg 52%
17:00 +7°C° 0 mm 4 mps 758 mmHg 55%
18:00 +6°C° 0 mm 4 mps 758 mmHg 58%
19:00 +7°C° 0 mm 3 mps 758 mmHg 58%
20:00 +5°C° 0 mm 3 mps 758 mmHg 59%
21:00 +5°C° 0 mm 3 mps 758 mmHg 60%
22:00 +5°C° 0 mm 3 mps 758 mmHg 58%
23:00 +5°C° 0 mm 3 mps 757 mmHg 56%

31 October, Saturday

Time Temperature Precipitation Wind Pressure Humidity
00:00 +5°C° 0 mm 3 mps 757 mmHg 54%
01:00 +4°C° 0 mm 3 mps 757 mmHg 55%
02:00 +4°C° 0 mm 3 mps 757 mmHg 55%
03:00 +3°C° 0 mm 3 mps 756 mmHg 56%
04:00 +3°C° 0 mm 3 mps 756 mmHg 56%
05:00 +4°C° 0 mm 2 mps 756 mmHg 56%
06:00 +4°C° 0 mm 2 mps 756 mmHg 55%
07:00 +5°C° 0 mm 2 mps 756 mmHg 51%
08:00 +5°C° 0 mm 2 mps 756 mmHg 47%
09:00 +6°C° 0 mm 2 mps 756 mmHg 43%
Show more